GW6111 Weather Reports


time (UTC)temp
C
wind
direction
speed
KPH
gust
KPH
rain 1hr
cm
rain 24hr
cm
rain mn
cm
humidity
%
barometer
mb
20260506170627 16 194 0.0 0.0 0.00 0.00 0.00 77 1020.7
20260506165601 16 194 0.0 0.0 0.00 0.00 0.00 78 1020.7
20260506163350 15 196 0.0 1.6 0.00 0.00 0.00 79 1020.6
20260506162401 15 201 0.0 1.6 0.00 0.00 0.00 80 1020.6
20260506161425 15 229 0.0 0.0 0.00 0.00 0.00 80 1020.6
20260506155255 15 182 0.0 1.6 0.00 0.00 0.00 80 1020.6
20260506153136 15 178 0.0 0.0 0.00 0.00 0.00 82 1020.6
20260506152125 14 178 0.0 0.0 0.00 0.00 0.00 82 1020.5
20260506145939 14 178 0.0 0.0 0.00 0.00 0.00 83 1020.5
20260506144953 13 178 0.0 0.0 0.00 0.00 0.00 83 1020.5
20260506142830 13 178 0.0 0.0 0.00 0.00 0.00 85 1020.5
20260506141845 13 178 0.0 0.0 0.00 0.00 0.00 85 1020.3
20260506140837 13 177 0.0 0.0 0.00 0.00 0.00 85 1020.3
20260506135822 13 177 0.0 0.0 0.00 0.00 0.00 85 1020.1
20260506134825 13 177 0.0 0.0 0.00 0.00 0.00 86 1020.1
20260506133832 13 177 0.0 0.0 0.00 0.00 0.00 85 1019.9
20260506132849 13 177 0.0 0.0 0.00 0.00 0.00 85 1019.9
20260506131907 13 177 0.0 0.0 0.00 0.00 0.00 85 1019.8
20260506130913 13 177 0.0 0.0 0.00 0.00 0.00 85 1019.8
20260506125905 13 177 0.0 0.0 0.00 0.00 0.00 85 1019.9
20260506123744 13 178 0.0 0.0 0.00 0.00 0.00 85 1019.7
20260506122731 13 184 0.0 0.0 0.00 0.00 0.00 85 1019.6
20260506120529 13 184 0.0 0.0 0.00 0.00 0.00 85 1019.5
20260506115539 13 184 0.0 0.0 0.00 0.00 0.00 85 1019.4
20260506114510 13 185 0.0 0.0 0.00 0.00 0.00 86 1019.4
20260506113534 13 186 0.0 0.0 0.00 0.00 0.00 85 1019.4
20260506111404 13 188 0.0 0.0 0.00 0.00 0.00 85 1019.2
20260506110424 13 188 0.0 1.6 0.00 0.00 0.00 85 1019.1
20260506105436 13 207 0.0 0.0 0.00 0.00 0.00 85 1019.1
20260506104413 13 206 0.0 0.0 0.00 0.00 0.00 85 1019.0
20260506102256 13 207 0.0 0.0 0.00 0.00 0.00 85 1018.8
20260506101317 13 211 0.0 0.0 0.00 0.00 0.00 85 1018.8
20260506100320 13 217 0.0 0.0 0.00 0.00 0.00 84 1018.7
20260506095333 13 218 0.0 0.0 0.00 0.00 0.00 84 1018.7
20260506093259 14 222 0.0 0.0 0.00 0.00 0.00 83 1018.7
20260506092305 14 223 0.0 0.0 0.00 0.00 0.00 82 1018.7
20260506091253 14 225 0.0 0.0 0.00 0.00 0.00 82 1018.7
20260506090233 14 225 0.0 0.0 0.00 0.00 0.00 82 1018.8
20260506085247 14 225 0.0 0.0 0.00 0.00 0.00 82 1018.8
20260506083109 14 226 0.0 0.0 0.00 0.00 0.00 82 1018.8
20260506082038 14 229 0.0 0.0 0.00 0.00 0.00 82 1018.8
20260506081101 15 229 0.0 0.0 0.00 0.00 0.00 82 1018.7
20260506072900 15 231 0.0 0.0 0.00 0.08 0.00 81 1018.5
20260506070715 15 232 0.0 0.0 0.00 0.15 0.00 80 1018.3
20260506061718 15 233 0.0 0.0 0.00 0.20 0.15 80 1017.8
20260506060705 15 233 0.0 0.0 0.00 0.25 0.15 80 1017.7
20260506050512 16 207 0.0 4.8 0.00 0.48 0.15 79 1017.0
20260506042023 16 155 0.0 0.0 0.00 0.58 0.15 80 1016.6
20260506035838 16 155 0.0 0.0 0.00 0.79 0.15 79 1016.3
20260506034812 16 155 0.0 0.0 0.00 0.84 0.15 79 1016.3
20260506033805 16 155 0.0 0.0 0.00 0.91 0.15 78 1016.3
20260506032804 16 155 0.0 0.0 0.00 1.04 0.15 78 1016.2
20260506031757 16 168 0.0 0.0 0.00 1.07 0.15 77 1016.0
20260506025633 16 168 0.0 0.0 0.00 1.22 0.15 76 1015.7
20260506024614 17 177 0.0 0.0 0.00 1.22 0.15 75 1015.7
20260506023550 17 169 0.0 0.0 0.00 1.30 0.15 75 1015.5
20260506021356 17 160 0.0 0.0 0.00 1.32 0.15 74 1015.3
20260506020348 17 157 0.0 6.4 0.00 1.35 0.15 74 1015.2
20260506015331 17 139 0.0 6.4 0.00 1.40 0.15 74 1015.3
20260506014307 17 184 0.0 1.6 0.00 1.45 0.15 72 1015.3
20260506013236 17 184 0.0 1.6 0.00 1.47 0.15 72 1015.1
20260506011130 18 154 0.0 3.2 0.00 1.57 0.15 71 1015.1
20260506004954 18 142 0.0 0.0 0.00 1.60 0.15 69 1015.0
20260506003921 18 173 0.0 3.2 0.00 1.65 0.15 70 1014.9
20260506002918 18 142 0.0 0.0 0.00 1.65 0.15 69 1014.7
20260506001914 18 142 0.0 0.0 0.00 1.70 0.15 69 1014.8
20260506000909 18 149 0.0 0.0 0.00 1.73 0.15 68 1014.8
20260505235915 18 72 0.0 0.0 0.00 1.73 0.15 69 1014.8
20260505233832 18 165 0.0 0.0 0.00 1.80 0.15 69 1014.8
20260505231703 18 151 0.0 0.0 0.00 1.88 0.15 68 1014.7
20260505230703 18 141 0.0 1.6 0.00 1.93 0.15 65 1014.8
20260505225703 18 136 0.0 0.0 0.00 1.93 0.15 65 1014.8
20260505224652 18 150 0.0 1.6 0.00 1.93 0.15 64 1014.8
20260505223620 18 146 0.0 0.0 0.00 1.98 0.15 64 1014.9
20260505222547 18 139 0.0 0.0 0.00 1.98 0.15 67 1015.0
20260505221538 18 139 0.0 1.6 0.00 1.98 0.15 66 1015.2
20260505220547 18 111 0.0 0.0 0.00 2.03 0.15 66 1015.2
20260505215515 18 147 0.0 1.6 0.00 2.06 0.15 65 1015.3
20260505214537 18 175 0.0 6.4 0.00 2.08 0.15 64 1015.3
20260505212402 17 241 0.0 6.4 0.00 2.08 0.15 70 1015.5
20260505211421 17 154 0.0 8.0 0.00 2.08 0.15 71 1015.5
20260505210347 17 154 1.6 8.0 0.00 2.08 0.15 68 1015.5
20260505205325 18 206 1.6 8.0 0.00 2.08 0.15 69 1015.5
20260505204321 17 219 0.0 8.0 0.00 2.08 0.15 73 1015.5
20260505203341 17 199 0.0 3.2 0.00 2.08 0.15 73 1015.6
20260505202352 17 238 1.6 8.0 0.00 2.08 0.15 71 1015.6
20260505200250 17 207 0.0 3.2 0.00 2.08 0.15 73 1015.7
20260505195224 17 188 0.0 6.4 0.00 2.08 0.15 74 1015.8
20260505194205 17 169 0.0 1.6 0.00 2.11 0.15 76 1015.8
20260505193215 16 180 0.0 4.8 0.00 2.11 0.15 79 1015.8
20260505184806 15 141 0.0 0.0 0.00 2.11 0.15 80 1015.9
20260505183744 15 163 0.0 0.0 0.00 2.11 0.15 83 1015.8
20260505182758 15 164 0.0 0.0 0.00 2.11 0.15 84 1015.8
20260505181725 14 165 0.0 0.0 0.00 2.11 0.15 85 1015.8
20260505180656 13 167 0.0 0.0 0.00 2.11 0.15 87 1015.8
20260505175632 13 167 0.0 3.2 0.00 2.11 0.15 88 1015.7
20260505174611 13 169 0.0 0.0 0.00 2.11 0.15 87 1015.6